Location: LDNL
(36.4545°S, 141.6685°E)
Time: 11:48:05
(UTC+10:00)

Transit 4A - Visible Passes

Search period start: 08 August 2022 00:00
Search period end: 18 August 2022 00:00
Orbit: 866 x 978 km, 66.8° (Epoch: 07 August)

Date Brightness Start Highest point End Pass type
(mag) Time Alt. Az. Time Alt. Az. Time Alt. Az.
08 Aug 10.3 06:40:34 10° SSE 06:43:29 13° SE 06:46:25 10° ESE visible
09 Aug 10.2 06:48:50 10° S 06:53:10 19° SE 06:57:31 10° E visible
10 Aug 9.9 06:57:31 10° S 07:02:44 27° SE 07:08:01 10° ENE visible
12 Aug 10.6 05:32:44 10° SSE 05:33:52 10° SE 05:34:59 10° SE visible
13 Aug 10.4 05:40:06 10° S 05:43:37 15° SE 05:47:09 10° ESE visible
14 Aug 10.1 05:48:33 10° S 05:53:15 21° SE 05:57:59 10° E visible
15 Aug 9.7 05:57:19 10° S 06:02:48 30° SE 06:08:19 10° ENE visible
16 Aug 9.1 06:06:15 10° SSW 06:12:14 43° ESE 06:18:17 10° NE visible
17 Aug 10.6 04:31:42 10° SSE 04:34:01 12° SE 04:36:21 10° ESE visible
17 Aug 8.5 06:15:19 10° SSW 06:21:36 64° ESE 06:27:56 10° NE visible
